Other Public Products
Issued by NWS Charleston, SC

Current Version | Previous Version | Text Only | Print | Product List | Glossary Off
Versions: 1 2 3 4 5 6 7 8 9 10 11 12 13 14 15 16 17 18 19 20 21 22 23 24 25 26 27 28 29 30 31 32 33 34 35 36 37 38 39 40 41 42 43 44 45 46 47 48 49 50

000
FPUS82 KCHS 201027
OPUCHS

TEST...KCHS/KSAV Gateway Observations...TEST
National Weather Service Charleston SC
500 AM EST FRI JAN 20 2017

NOTE: "fair" indicates few or no clouds below 12,000 feet with no
significant weather and/or obstructions to visibility.

SCZ050-WAZ558-NCZ071-TXZ119-213-PAZ071-DCZ001-FLZ074-172-MI076-
NYZ176-178-MAZ016-IL014-TNZ027-NJZ106-GAZ044-MD014-201100-
...Gateway Observations for Charleston International...

CITY           SKY/WX    TMP DP  RH WIND       PRES   REMARKS
Chas Airport   CLOUDY    58  55  90 S3        29.91F
Seattle        MOCLDY    40  34  79 NE3       29.36F
Charlotte      CLOUDY    55  44  66 SE16      29.85F
Dallas DFW     CLEAR     50  43  77 SW13      29.59F
Dallas Love    CLEAR     54  45  71 SW8       29.62S
Philladelphia  MOCLDY    33  32  96 CALM      30.01F
Wash National  CLOUDY    40  37  89 NE6       29.99S WCI  36
Baltimore      MOCLDY    34  33  96 CALM      29.99S
Miami          CLOUDY    67  63  87 CALM      30.00S
Detroit        CLOUDY    34  33  96 NE9       29.74F FOG     WCI  27
Newark         CLOUDY    42  32  67 NE3       30.02S
Laguardia      CLOUDY    41  31  67 NE6       30.01F
J F K          CLOUDY    42  27  55 NE6       30.03S
Boston Logan   CLOUDY    36  30  79 NW7       30.02S WCI  30
Ft. Lauderdale PTCLDY    65  63  93 NW6       29.99S
Chicago O`Hare DRIZZLE   38  37  97 NE9       29.64F FOG     WCI  31
Chicago Midway DRZL/FOG  37  37 100 NE12      29.64F VSB 1   WCI  29
Houston Bush   FOG       61  60  97 SW7       29.75S VSB 1/2
Houston Hobby  FOG       61  61 100 SW12      29.75S VSB 3/4
Nashville      CLOUDY    57  54  89 SW7       29.74R
Atlanta        MOCLDY    63  61  93 SW7       29.81F

$$

GAZ044-118-TXZ119-213-NCZ071-DCZ001-MDZ014-506-PAZ021-071-NJZ106-
NYZ176-178-MAZ106-OHZ011-021-055-MIZ076-KYZ091-ILZ014-INZ047-
MNZ060-201100-
...Gateway Observations for Savannah International...

CITY           SKY/WX    TMP DP  RH WIND       PRES   REMARKS
Savannah Arpt  CLOUDY    59  56  89 S7        29.90F
Atlanta        MOCLDY    63  61  93 SW7       29.81F
Charlotte      CLOUDY    55  44  66 SE16      29.85F
Dallas DFW     CLEAR     50  43  77 SW13      29.59F
Houston Bush   FOG       61  60  97 SW7       29.75S VSB 1/2
Wash National  CLOUDY    40  37  89 NE6       29.99S WCI  36
Wash Dulles    CLOUDY    34  32  92 CALM      29.97S
Baltimore      MOCLDY    34  33  96 CALM      29.99S
Philadelphia   MOCLDY    33  32  96 CALM      30.01F
Newark         CLOUDY    42  32  67 NE3       30.02S
Laguardia      CLOUDY    41  31  67 NE6       30.01F
J F K          CLOUDY    42  27  55 NE6       30.03S
Boston         CLOUDY    36  30  79 NW7       30.02S WCI  30
Pittsburg      CLOUDY    36  35  96 E3        29.76F
Akron          LGT RAIN  38  34  85 SE8       29.74F WCI  32
Cleveland      LGT RAIN  41  34  76 S7        29.76F
Cincinnati     RAIN      52  52 100 S10       29.61R FOG
Columbus       RAIN      41  41 100 E9        29.63F
Detroit        CLOUDY    34  33  96 NE9       29.74F FOG     WCI  27
Chicago O`Hare DRIZZLE   38  37  97 NE9       29.64F FOG     WCI  31
Minneapolis    CLOUDY    35  34  96 SE5       29.64F FOG     WCI  31
Indianapolis   LGT RAIN  47  45  93 S7        29.58F

$$




USA.gov is the U.S. government's official web portal to all federal, state and local government web resources and services.